Location: Unspecified
(40.7945°N, 0.0000°E)
Time: 15:11:31
(UTC+00:00)

AIST 2D - Pass Details

Date: 28 July 2019
Orbit: 458 x 471 km, 97.2° (Epoch: 23 August)

Event Time Altitude Azimuth Distance (km) Brightness Sun altitude
Rises 23:15:45 0° 4° (N) 2,520 ? -29.2°
Reaches altitude 10° 23:17:53 10° 356° (N) 1,639 ? -29.3°
Enters shadow 23:19:25 22° 342° (NNW) 1,066 ? -29.3°
